Simultaneous Nadir Overpasses (SNOs) Predictions

Prediction of SNOs between METOP-B and TERRA Satellite Orbit:

Table of predicted SNOs for the next 14.0 days since TLE Epoch: 2/21/2015
Index Date (METOP-B) Time (METOP-B) Lat,Lon (METOP-B) SZA (METOP-B ) Date (TERRA) Time (TERRA) Lat,Lon (TERRA) SZA (TERRA ) Distance(km) Time Diff (sec)
1 02/22/2015 19:08:10 -81.28, 119.60 86.33 02/22/2015 19:08:49 -81.29, 119.63 86.31 0.84 39
2 02/22/2015 19:58:50 81.29, -72.58 93.72 02/22/2015 19:58:15 81.29, -72.66 93.69 1.39 35
3 02/25/2015 14:42:36 -81.28,-174.08 87.36 02/25/2015 14:43:01 -81.29,-173.91 87.33 3.00 25
4 02/25/2015 15:33:16 81.29, -6.29 92.68 02/25/2015 15:32:27 81.29, -6.23 92.67 1.08 49
5 02/28/2015 10:17:01 -81.28,-107.42 88.37 02/28/2015 10:17:12 -81.29,-107.41 88.36 0.67 11
6 02/28/2015 11:07:40 81.29, 60.34 91.67 02/28/2015 11:06:37 81.29, 60.25 91.64 1.56 63
7 03/03/2015 05:00:46 81.28, 151.21 90.55 03/03/2015 05:01:55 81.27, 151.12 90.57 1.53 69
8 03/03/2015 05:51:26 -81.28, -41.20 89.44 03/03/2015 05:51:22 -81.27, -41.25 89.45 1.26 4
9 03/06/2015 00:35:11 81.28,-142.27 89.50 03/06/2015 00:36:04 81.28,-142.32 89.52 0.84 53




NCC Satellite Simultaneous Nadir Overpasses (SNOs) Prediction Service
